Home   Weather   Celje   Past weeks

Flag for Slovenia Past Weather in Celje, Slovenia — Yesterday and Last 2 Weeks

Now
59 °F

Refreshingly cool.


Feels Like: 58 °F
Forecast: 48 / 59 °F
Wind: 5 mph from Southwest

Location: Celje

Current Time: Apr 26, 2017 at 6:02:19 am

Latest Report: Apr 26, 2017 at 5:00 am


Visibility: N/A

Pressure: 29.80 "Hg

Humidity: 58%

Dew Point: 44 °F

Location of CeljeLocation

Past Weather in Celje — Graph

°F

Celje Temperature Yesterday

Maximum temperature yesterday: 64 °F (at 1:00 pm)
Minimum temperature yesterday: 48 °F (at 5:00 am)
Average temperature yesterday: 58 °F

High & Low Weather Summary for the Past Weeks

 TemperatureHumidityPressure
High71 °F (Apr 13, 3:00 pm)99% (Apr 17, 8:00 am)30.50 "Hg (Apr 17, 8:00 am)
Low25 °F (Apr 21, 6:00 am)25% (Apr 21, 4:00 pm)29.79 "Hg (Apr 13, 3:00 pm)
Average50 °F67%30.07 "Hg
* Reported Apr 11 4:00 am — Apr 26 4:00 am, Celje, Weather by CustomWeather, © 2017

Note: Actual official high and low records may vary slightly from our data, if they occured in-between our weather recording intervals... More about our weather records

Advertising

Celje Weather History for the Previous 24 Hours

Scroll right to see more
 ConditionsComfort  
Time TempWeatherWind HumidityBarometerVisibility
4:00 am
Wed, Apr 26
59 °FRefreshingly cool.3 mph58%29.80 "HgN/A
3:00 am58 °FCool.3 mphN/AN/AN/A
2:00 am58 °FCool.2 mph64%29.81 "HgN/A
1:00 am58 °FCool.3 mph64%29.82 "HgN/A
12:00 am57 °FCool.3 mph62%29.83 "HgN/A
11:00 pm
Tue, Apr 25
55 °FCool.2 mph70%29.84 "HgN/A
10:00 pm58 °FCool.3 mph61%29.85 "HgN/A
9:00 pm58 °FRefreshingly cool.7 mph59%29.85 "HgN/A
8:00 pm60 °FRefreshingly cool.8 mph55%29.83 "HgN/A
7:00 pm61 °FRefreshingly cool.6 mph54%29.84 "HgN/A
6:00 pm61 °FRefreshingly cool.3 mph55%29.84 "HgN/A
5:00 pm63 °FMild.6 mph51%29.85 "HgN/A
4:00 pm62 °FRefreshingly cool.5 mph59%29.85 "HgN/A
3:00 pm63 °FMild.6 mph51%29.87 "HgN/A
2:00 pm64 °FMild.6 mph55%29.87 "HgN/A
1:00 pm64 °FMild.6 mph56%29.88 "HgN/A
12:00 pm61 °FRefreshingly cool.6 mph59%29.91 "HgN/A
11:00 am60 °FCool.6 mph65%29.92 "HgN/A
10:00 am58 °FCool.3 mph68%29.93 "HgN/A
9:00 am58 °FCool.5 mph67%29.93 "HgN/A
8:00 am55 °FSprinkles. Partly sunny.6 mph69%29.94 "Hg12 mi
7:00 am54 °FCool.3 mph67%29.93 "HgN/A
6:00 am53 °FCool.5 mph67%29.94 "HgN/A
Weather by CustomWeather, © 2017

See weather overviewHow to use our weather pages